Location: Newark
(40.7060°N, 73.9980°W)
Time: 00:21:36
(UTC+00:00)

N. Korean satellite - Pass Details

Date: 25 November 2019
Orbit: 456 x 506 km, 97.2° (Epoch: 06 December)

Event Time Altitude Azimuth Distance (km) Brightness Sun altitude
Rises 22:00:20 0° 168° (SSE) 2,570 10.4 -5.8°
Reaches altitude 10° 22:02:23 10° 168° (SSE) 1,698 9.5 -6.1°
Maximum altitude 22:06:03 87° 258° (WSW) 510 6.7 -6.8°
Drops below altitude 10° 22:09:47 10° 348° (NNW) 1,727 9.3 -7.4°
Sets 22:11:54 0° 348° (NNW) 2,618 10.2 -7.8°
